カタログに戻る

STARLINK-30223

運用中通信VLEO
NORAD 57603·PAYLOAD·🇺🇸 United States

打ち上げ Aug 11, 2023 から Cape Canaveral Space Force Station

Loading…

次のパス (今後24時間)

TLE

最新Source: CelesTrak SupGP

元期: Sep 14, 2026, 21:38 UTC

1 57603C 23119B   26257.90187500  .00008050  00000+0  43235-3 0  2578
2 57603  42.9969 120.5237 0011001 218.4402  45.3381 15.14089720    18

AllMySatでSTARLINK-30223をリアルタイム追跡

Download on the App Store